Tampa, FL

6:44 AM EDT on August 25, 2016 (GMT -0400)
Tampa International

Weather History for KTPA - February, 2013

Change the Weather History Date:

Friday, February 22, 2013

  Actual Average Record
Temperature  
Mean Temperature 74 °F 64 °F  
Max Temperature 82 °F 73 °F 85 °F (1949)
Min Temperature 65 °F 55 °F 32 °F (1977)
Degree Days  
Heating Degree Days 0 3  
Month to date heating degree days 76 89  
Since 1 July heating degree days 254 454  
Cooling Degree Days 9 2  
Month to date cooling degree days 56 44  
Year to date cooling degree days 181 94  
Growing Degree Days 23 (Base 50)    
Moisture  
Dew Point 65 °F    
Average Humidity 78    
Maximum Humidity 93    
Minimum Humidity 62    
Precipitation  
Precipitation 0.00 in 0.10 in 1.66 in (1904)
Month to date precipitation 0.78 2.25  
Year to date precipitation 1.41 4.48  
Sea Level Pressure  
Sea Level Pressure 30.05 in    
Wind  
Wind Speed 6 mph (South)    
Max Wind Speed 13 mph    
Max Gust Speed 29 mph    
Visibility 10 miles    
Events      
T = Trace of Precipitation, MM = Missing Value Source: NWS Daily Summary

Daily Weather History Graph

Daily Weather History Graph

Search for Another Location

Airport or City:

Trip Planner

Search our weather history database for the weather conditions in past years. The results will help you decide how hot, cold, wet, or windy it might be!

Date:

Astronomy

Feb. 22, 2013 Rise Set
Actual Time 7:01 AM EST 6:26 PM EST
Civil Twilight 6:37 AM EST 6:49 PM EST
Nautical Twilight 6:10 AM EST 7:17 PM EST
Astronomical Twilight 5:43 AM EST 7:44 PM EST
Moon 3:45 PM EST (2/22) 4:35 AM EST (2/22)
Length of Visible Light 12h 12m
Length of Day
11h 24m
Waxing Gibbous, 90% of the Moon is Illuminated
Feb 22
Waxing Gibbous
Feb 25
Full
Mar 4
Last Quarter
Mar 11
New
Mar 19
First Quarter

Hourly Weather History & Observations

Time (EST) Temp. Heat Index Dew Point Humidity Pressure Visibility Wind Dir Wind Speed Gust Speed Precip Events Conditions
12:53 AM 69.1 °F - 61.0 °F 75% 30.04 in 10.0 mi SE 4.6 mph - N/A   Mostly Cloudy
1:53 AM 68.0 °F - 62.1 °F 81% 30.03 in 10.0 mi Calm Calm - N/A   Mostly Cloudy
2:53 AM 66.9 °F - 62.1 °F 84% 30.03 in 10.0 mi Calm Calm - N/A   Mostly Cloudy
3:53 AM 66.9 °F - 61.0 °F 81% 30.04 in 10.0 mi Calm Calm - N/A   Mostly Cloudy
4:53 AM 66.0 °F - 61.0 °F 84% 30.04 in 10.0 mi Calm Calm - N/A   Mostly Cloudy
5:53 AM 64.9 °F - 61.0 °F 87% 30.05 in 10.0 mi ESE 3.5 mph - N/A   Mostly Cloudy
6:53 AM 66.0 °F - 62.1 °F 87% 30.06 in 9.0 mi SE 4.6 mph - N/A   Mostly Cloudy
7:53 AM 66.9 °F - 64.0 °F 90% 30.08 in 9.0 mi SE 8.1 mph - N/A   Scattered Clouds
8:53 AM 70.0 °F - 64.9 °F 84% 30.08 in 10.0 mi SSE 9.2 mph - N/A   Scattered Clouds
9:53 AM 73.9 °F - 66.0 °F 76% 30.09 in 10.0 mi SSE 8.1 mph 16.1 mph N/A   Scattered Clouds
10:46 AM 77.0 °F - 66.2 °F 69% 30.09 in 10.0 mi South 6.9 mph - N/A   Mostly Cloudy
10:53 AM 77.0 °F - 66.0 °F 69% 30.09 in 10.0 mi South 11.5 mph - N/A   Mostly Cloudy
11:53 AM 77.0 °F - 66.9 °F 71% 30.08 in 10.0 mi SW 8.1 mph - N/A   Scattered Clouds
12:53 PM 79.0 °F - 66.0 °F 64% 30.06 in 10.0 mi SW 9.2 mph - N/A   Scattered Clouds
1:53 PM 80.1 °F 82.1 °F 66.0 °F 62% 30.04 in 10.0 mi SSW 9.2 mph - N/A   Scattered Clouds
2:53 PM 81.0 °F 83.0 °F 66.0 °F 60% 30.02 in 10.0 mi South 11.5 mph - N/A   Mostly Cloudy
3:53 PM 78.1 °F - 66.9 °F 68% 30.01 in 10.0 mi SSW 10.4 mph - N/A   Overcast
4:53 PM 77.0 °F - 66.0 °F 69% 30.01 in 10.0 mi SSW 8.1 mph - N/A   Mostly Cloudy
5:53 PM 75.0 °F - 66.0 °F 73% 30.02 in 10.0 mi SSW 5.8 mph - N/A   Mostly Cloudy
6:53 PM 73.0 °F - 64.9 °F 76% 30.03 in 10.0 mi SSW 6.9 mph - N/A   Partly Cloudy
7:53 PM 72.0 °F - 64.9 °F 78% 30.04 in 10.0 mi South 5.8 mph - N/A   Clear
8:53 PM 71.1 °F - 66.0 °F 84% 30.04 in 10.0 mi South 8.1 mph - N/A   Clear
9:53 PM 69.1 °F - 66.0 °F 90% 30.06 in 10.0 mi South 5.8 mph - N/A   Clear
10:53 PM 70.0 °F - 66.0 °F 87% 30.04 in 10.0 mi South 6.9 mph - N/A   Partly Cloudy
11:53 PM 70.0 °F - 66.0 °F 87% 30.03 in 10.0 mi Calm Calm - N/A   Partly Cloudy